Overview Statistics Trail Chart Weather Telemetry Raw packets
 

This is the latest recevied weather packets stored in our database for station/object N9DMT-13. If no packets are shown the sender has not sent any weather packets the latest 10 day(s).

<< 47 48 49 50 51 52 53 >>
Time Temp. Humidity Pressure Rain* Wind** Luminosity Snow
1777559639 6.11° C 72% 984.4 hPa 0 mm - - -
1777559338 6.11° C 71% 984.3 hPa 0 mm - - -
1777559037 6.11° C 72% 984.4 hPa 0 mm - - -
1777558737 6.11° C 73% 984.3 hPa 0 mm - - -
1777558436 6.11° C 72% 984.1 hPa 0 mm - - -
1777558136 6.11° C 73% 984.1 hPa 0 mm - - -
1777557835 6.11° C 72% 984.2 hPa 0 mm - - -
1777557534 6.11° C 71% 984.1 hPa 0 mm - - -
1777557234 5.56° C 76% 984.3 hPa 0 mm - - -
1777556933 5.56° C 79% 984.4 hPa 0 mm - - -
1777556632 5° C 80% 984.3 hPa 0 mm - - -
1777556331 4.44° C 80% 984.3 hPa 0 mm - - -
1777556029 4.44° C 80% 984.2 hPa 0 mm - - -
1777555733 4.44° C 84% 984.1 hPa 0 mm - - -
1777555428 3.89° C 85% 984.1 hPa 0 mm - - -
1777555127 3.89° C 85% 984.1 hPa 0 mm - - -
1777554827 3.89° C 85% 984.4 hPa 0 mm - - -
1777554526 3.33° C 86% 984.4 hPa 0 mm - - -
1777554226 2.78° C 87% 984.3 hPa 0 mm - - -
1777553925 2.78° C 88% 984.5 hPa 0 mm - - -
1777553624 2.22° C 87% 984.6 hPa 0 mm - - -
1777553324 2.22° C 88% 984.3 hPa 0 mm - - -
1777553023 2.22° C 88% 984.2 hPa 0 mm - - -
1777552722 1.67° C 87% 984.2 hPa 0 mm - - -
1777552422 1.67° C 87% 984.7 hPa 0 mm - - -

* Rain latest hour (hover to see other rain measurements)
** Current wind speed in m/s (hover to see current wind gust speed)